User: anonymous   Login
Location: Archamps
(46.1365°N, 6.1329°E)
Time: 12:54:12
(UTC+00:00)
Language:

CZ-6A DEB - Orbit

View from above orbital plane
View from above orbital plane
View from above satellite
View from above satellite

Ground track
Ground track

The orbit data is extracted from the following two-line orbital elements,

1 54504U 22151JG  24053.96087636  .00001189  00000-0  67534-3 0  9995
2 54504  98.8377  61.3447 0041990 172.5285 187.6521 14.11418973 65774
Epoch (UTC): 22 February 2024 23:03:39
Eccentricity: 0.0041990
inclination: 98.8377°
perigee height: 824 km
apogee height: 885 km
right ascension of ascending node: 61.3447°
argument of perigee: 172.5285°
revolutions per day: 14.11418973
mean anomaly at epoch: 187.6521°
orbit number at epoch: 6577

The dashed part of the orbit path shows where the satellite is in the earth's shadow,  

DLR